Other Public Products
Issued by NWS Grand Forks, ND

Home | Current Version | Previous Version | Graphics & Text | Print | Product List | Glossary On
Versions: 1 2 3 4 5 6 7 8 9 10 11 12 13 14 15 16 17 18 19 20 21 22 23 24 25 26 27 28 29 30 31 32 33 34 35 36 37 38 39 40 41 42 43 44 45 46 47 48 49 50
000
FPUS83 KFGF 221710
OPUFGF
PRAIRIE TO PINES WEATHER ROUNDUP
NATIONAL WEATHER SERVICE EASTERN NORTH DAKOTA/GRAND FORKS ND
1100 AM CST SUN JAN 22 2017

 **SATELLITE DATA USED TO AUGMENT SKY COVER AT AUTOMATED STATIONS**
 *****  WEATHER ACROSS EASTERN NORTH DAKOTA  *****

CITY           SKY/WX    TMP DP  RH WIND       PRES   REMARKS
GRAND FORKS    CLOUDY    35  30  82 W7        29.74R
GRAND FORKS AF CLOUDY    32  28  86 NW9       29.74R WCI  24
GRAND CITY NWS NOT AVBL
BUXTON         NOT AVBL
DEVILS LAKE    CLOUDY    29  27  92 NW14      29.72R WCI  18
FARGO          CLOUDY    35  32  88 W9        29.76R FOG
WAHPETON ARPT  CLOUDY    32  32 100 W9        29.77R WCI  24
$$

 *****  WEATHER ACROSS CENTRAL AND WESTERN NORTH DAKOTA  *****

CITY           SKY/WX    TMP DP  RH WIND       PRES   REMARKS
JAMESTOWN      CLOUDY    32  29  88 NW13      29.74R WCI  22
BISMARCK       CLOUDY    31  28  89 W9        29.80R WCI  23
MINOT          CLOUDY    32  29  88 W13       29.75R WCI  22
MINOT AFB      CLOUDY    30  27  89 W15       29.74R WCI  19
GARRISON         N/A     31  28  89 W10       29.77R WCI  22
WILLISTON      CLOUDY    30  27  88 W12       29.81R WCI  20
DICKINSON      CLOUDY    25  23  92 NW21      29.78S WCI  11
HETTINGER      CLOUDY    25  22  88 W14       29.83R WCI  13
$$

 *****  OTHER OBSERVATIONS NORTHEAST NORTH DAKOTA  *****

CITY           SKY/WX    TMP DP  RH WIND       PRES   REMARKS
WALHALLA       NOT AVBL
LANGDON        NOT AVBL
CAVALIER       MIX PCPN  34  34 100 W6        29.72R
GRAFTON        CLOUDY    34  34 100 W7        29.74S FOG
CANDO          NOT AVBL
FORT TOTTEN      N/A     28  28 100 NW6       29.95S WCI  22
ROLLA            N/A    N/A N/A N/A MISG        N/A
RUGBY            N/A     28  28 100 NW15      29.73R WCI  17
 ***** THE ABOVE OBSERVATIONS ARE NON NWS ARE NOT QUALITY
        CONTROLLED AND MAY MIS-REPORT RAIN FOR SNOW...
$$

 *****  OTHER OBSERVATIONS SOUTHEAST NORTH DAKOTA *****

CITY           SKY/WX    TMP DP  RH WIND       PRES   REMARKS
COOPERSTOWN    CLOUDY    32  30  93 W9        29.73R FOG     WCI  24
VALLEY CITY    CLOUDY    32  32 100 W9        29.76R FOG     WCI  24
OAKES          NOT AVBL
GWINNER        CLOUDY    32  32 100 W7        29.77S
SHEYENNE NWR     N/A     32  29  88 NW3       29.95S
BUFFALO        NOT AVBL
WYNDMERE       NOT AVBL
 ***** THE ABOVE OBSERVATIONS ARE NON NWS ARE NOT QUALITY
       CONTROLLED AND MAY MIS-REPORT RAIN FOR SNOW...
$$

  *****  WEATHER ACROSS NORTHERN MINNESOTA  *****

CITY           SKY/WX    TMP DP  RH WIND       PRES   REMARKS
FLAG ISLAND    CLOUDY    34  34 100 CALM      29.70S
WARROAD        FOG       34  30  86 CALM      29.72R VSB 1/4
ROSEAU         HAZE      36  30  80 CALM      29.71R VSB 1/2
HALLOCK        FOG       34  34 100 CALM      29.72R VSB<1/4
THF RVR FALLS  FOG       34  33  96 W5        29.73R VSB<1/4
HALSTAD        NOT AVBL
FOSSTON        FOG       34  34 100 SW3       29.72R VSB<1/4
BAUDETTE       CLOUDY    35  34  96 CALM      29.70R
WASKISH        FOG       36  34  93 CALM      29.71R VSB 1/2
CROOKSTON      FOG       34  34 100 W5        29.74R VSB 1/2
$$
  *****  WEATHER ACROSS CENTRAL AND WEST MINNESOTA  *****

CITY           SKY/WX    TMP DP  RH WIND       PRES   REMARKS
BEMIDJI        CLOUDY    33  33 100 W3        29.71R FOG
PARK RAPIDS    CLOUDY    35  32  88 W5        29.70S FOG
WADENA         CLOUDY    34  34 100 W3        29.72R FOG
DETROIT LAKES  FOG       34  34 100 W5        29.74R VSB 1/4
MOORHEAD       CLOUDY    32  30  93 W12       29.77R FOG     WCI  23
FERGUS FALLS   FOG       32  32 100 W10       29.80R VSB 1/4 WCI  24
ELBOW LAKE     SNOW      32  32 100 NW8       29.76R VSB 1/4 WCI  25
MORRIS MN      CLOUDY    34  32  93 NW12      29.76R FOG
STAPLES        CLOUDY    36  36 100 W3        29.72R
WHEATON        CLOUDY    36  36 100 W9        29.80R FOG
$$
  *****  WEATHER ELSEWHERE ACROSS MINNESOTA  *****

CITY           SKY/WX    TMP DP  RH WIND       PRES   REMARKS
DULUTH         CLOUDY    35  34  96 NW5       29.67R FOG
INTRNTL FALLS  FOG       35  34  96 N3        29.69S VSB 1/2
ELY            CLOUDY    34  34 100 CALM      29.67R
CLOQUET        CLOUDY    36  34  93 W5        29.68S FOG
BRAINERD       CLOUDY    35  34  96 CALM      29.72R FOG
HIBBING        CLOUDY    33  33 100 NW3       29.68R
ALEXANDRIA     FOG       33  33 100 W7        29.74R VSB 1
SAINT CLOUD    CLOUDY    36  36 100 NW6       29.72R
MINNEAPOLIS    CLOUDY    38  34  85 N5        29.72R
$$

  *****  WEATHER ACROSS SOUTH DAKOTA  *****

CITY           SKY/WX    TMP DP  RH WIND       PRES   REMARKS
SIOUX FALLS    CLOUDY    32  31  96 NW12      29.78S FOG     WCI  23
BROOKINGS      CLOUDY    30  29  96 W13       29.76S FOG     WCI  20
WATERTOWN      CLOUDY    29  28  96 W12       29.76R FOG     WCI  19
HURON          CLOUDY    25  25 100 NW12      29.83R FOG     WCI  14
SISSETON         N/A     32  30  92 NW10      29.77R WCI  24
ABERDEEN       CLOUDY    29  25  85 W9        29.81R FOG     WCI  20
MITCHELL       FAIR      30  26  85 N13       29.84R WCI  20
PIERRE         FAIR      26  21  81 W9        29.85R WCI  17
MOBRIDGE       CLOUDY    24  20  84 NW8       29.80R FOG     WCI  15
RAPID CITY     FAIR      38  24  57 N10       29.85R
$$

  *****  SOME WEATHER IN NEARBY STATES *****

CITY           SKY/WX    TMP DP  RH WIND       PRES   REMARKS
GLASGOW MT     CLOUDY    28  25  88 W8        29.84R WCI  20
GREAT FALLS MT FAIR      27  21  78 E6        29.81F WCI  20
CHEYENNE WY    FAIR      34   9  35 NW17G24   29.91R WCI  23
SCOTTSBLUFF NE FAIR      36  24  62 NW13      29.92R
OMAHA NE       CLOUDY    36  30  79 N9        29.80R
DES MOINES IA  CLOUDY    36  34  92 NW9       29.73R FOG
DAVENPORT IA   CLOUDY    32  31  96 NW7       29.68S
CHICAGO IL     CLOUDY    44  39  82 E5        29.64S
EAU CLAIRE WI  CLOUDY    36  35  96 NW5       29.67S
LA CROSSE WI   CLOUDY    40  36  86 CALM      29.68S FOG
$$

  *****  SOME NATIONAL WEATHER *****

CITY           SKY/WX    TMP DP  RH WIND       PRES   REMARKS
LA GUARDIA NY  FOG       43  41  93 NE12      29.73F VSB 1/2
RALEIGH NC     FOG       54  53  97 NE5       29.59R VSB 1/4
ATLANTA GA     FOG       59  58  96 SE6       29.51F VSB 1/4
NEW ORLEANS LA FAIR      64  49  57 W20       29.50F
OKLAHOMA CITY  PTSUNNY   52  43  71 N26G41    29.70R
ALBUQUERQUE NM FAIR      35  22  58 CALM      30.20R
SALT LAKE CITY CLOUDY    31  23  72 SE15      29.95S WCI  20
LOS ANGELES CA LGT RAIN  51  48  89 E14       30.10S FOG
BOISE ID       CLOUDY    39  26  59 SE20      29.69R
SEATTLE WA     LGT RAIN  46  37  71 SE9       29.46R
$$

*** WEATHER ACROSS MANITOBA...SASKATCHEWAN AND ONTARIO ***
                ***ONTARIO***

CITY           SKY/WX    TMP DP  RH WIND       PRES   REMARKS
GERALDTON      LGT SNOW  32  30  93 NE10      29.70S VSB 1   WCI  24
THUNDER BAY    FLURRIES  36  34  93 NE5       29.68R
SIOUX LOOKOUT  CLOUDY    34  32  93 E3        29.70S
TORONTO        CLOUDY    39  37  93 E8        29.73F FOG
BIG TROUT LK   CLOUDY    25  23  93 SE7       29.85F WCI  17
PICKLE LAKE    FLURRIES  28  27  93 E6        29.76R WCI  22
DRYDEN         FLURRIES  34  34 100 NE5       29.70R
KENORA         FOG       34  34 100 CALM      29.70R VSB 1/4
$$
                *** MANITOBA***

CITY           SKY/WX    TMP DP  RH WIND       PRES   REMARKS
BRANDON        LGT SNOW  30  27  86 W13       29.70R FOG     WCI  20
DAUPHIN        MIX PCPN  32  32 100 W3        29.68S FOG
ISLAND LAKE    CLOUDY    32  30  93 E2        29.76S FOG
PILOT MOUND      N/A     30  28  93 W6          N/A  WCI  24
THE PAS        FLURRIES  32  32 100 NE6       29.73R
THOMPSON       LGT SNOW  28  27  93 NE7       29.79R WCI  21
WINNIPEG       FOG       34  34 100 SE6       29.71R VSB 1/4
LYNN LAKE      FLURRIES  25  23  93 N10G17    29.84R WCI  15
CHURCHILL      FOG       21  21 100 E6        29.93S VSB 3/4 WCI  14
GILLAM         CLOUDY    25  23  93 E3        29.84S FOG
$$
                ***SASKATCHEWAN***

CITY           SKY/WX    TMP DP  RH WIND       PRES   REMARKS
ESTEVAN        CLOUDY    28  28 100 W12       29.75R FOG     WCI  18
KINDERSLEY     CLOUDY    21  19  93 N15       29.82S WCI   8
LLOYDMINSTER   LGT SNOW  18  18 100 N8        29.87S FOG     WCI   7
PRINCE ALBERT  LGT SNOW  23  19  86 N10       29.77R FOG     WCI  12
REGINA         CLOUDY    27  23  86 NW15      29.74R WCI  15
YORKTON        FLURRIES  27  25  93 W8        29.68R WC1F1C2F2C3F3C4F4C5F5C6F6C7F7C8F8C9F9CaFaCbFbCcFcCdFdCe!



USA.gov is the U.S. government's official web portal to all federal, state and local government web resources and services.